{"data":{"norad_id":69376,"epoch":"2026-09-19T22:34:11.252064Z","epoch_age_seconds":77312,"freshness":"FRESH","line1":"1 69376U 26123Z   26262.94040801  .00014650  00000+0  44390-3 0  9997","line2":"2 69376  53.1593 144.3590 0000886 128.6525 231.4557 15.34397558 16785","mean_motion":15.34397558,"eccentricity":8.86e-5,"inclination_deg":53.1593,"raan_deg":144.359,"arg_perigee_deg":128.6525,"mean_anomaly_deg":231.4557,"bstar":0.0004439,"rev_number":1678,"period_min":93.847907440426,"perigee_km":462.10439926701,"apogee_km":463.31659744371,"semimajor_km":6840.8474983554,"source":"CELESTRAK","updated_at":"2026-09-20T09:00:44.192789Z"}}